Weather History for Blair, NE

Change the Weather History Date:

Tuesday, November 6, 2012

  Actual Average (KOMA) Record (KOMA)
Temperature  
Mean Temperature 47 °F 44 °F  
Max Temperature 56 °F 55 °F 80 °F (1980)
Min Temperature 38 °F 34 °F 7 °F (1991)
Degree Days  
Heating Degree Days 18 21  
Month to date heating degree days 118  
Since 1 July heating degree days 603  
Cooling Degree Days 0 0  
Month to date cooling degree days 0  
Year to date cooling degree days 1112  
Moisture  
Dew Point 33 °F    
Average Humidity 65    
Maximum Humidity 89    
Minimum Humidity 36    
Precipitation  
Precipitation 0.00 in 0.05 in 1.99 in (2000)
Month to date precipitation 0.37  
Year to date precipitation 28.31  
Snow  
Snow 0.00 in 0.00 in - ()
Month to date snowfall 0.2  
Since 1 July snowfall 0.5  
Snow Depth -    
Sea Level Pressure  
Sea Level Pressure 30.00 in    
Wind  
Wind Speed 14 mph (WNW)    
Max Wind Speed 28 mph    
Max Gust Speed 38 mph    
Visibility 9 miles    
Events      
T = Trace of Precipitation, MM = Missing Value Source: NWS Daily Summary

Daily Weather History Graph

Daily Weather History Graph

Search for Another Location

Airport:

Trip Planner

Search our weather history database for the weather conditions in past years. The results will help you decide how hot, cold, wet, or windy it might be!

Date:

Astronomy

Nov. 06, 2012 Rise Set
Actual Time 7:02 AM CST 5:12 PM CST
Civil Twilight 6:33 AM CST 5:42 PM CST
Nautical Twilight 6:00 AM CST 6:15 PM CST
Astronomical Twilight 5:28 AM CST 6:47 PM CST
Moon 11:54 PM CST (11/6) 12:54 PM CST (11/6)
Length of Visible Light 11h 08m
Length of Day
10h 10m
Waning Gibbous, 53% of the Moon is Illuminated
Nov 6
Waning Gibbous
Nov 6
Last Quarter
Nov 13
New
Nov 20
First Quarter
Nov 28
Full

Hourly Weather History & Observations

Time (CST) Temp. Windchill Dew Point Humidity Pressure Visibility Wind Dir Wind Speed Gust Speed Precip Events Conditions
12:15 AM 40.8 °F 34.5 °F 37.6 °F 88% 30.01 in 7.0 mi South 10.4 mph - N/A   Overcast
12:35 AM 40.6 °F 34.8 °F 37.4 °F 88% 30.00 in 7.0 mi South 9.2 mph - N/A   Mostly Cloudy
12:55 AM 40.1 °F 34.7 °F 36.9 °F 88% 30.00 in 7.0 mi South 8.1 mph - N/A   Clear
1:15 AM 40.1 °F 34.7 °F 37.2 °F 89% 30.00 in 7.0 mi South 8.1 mph - N/A   Mostly Cloudy
1:35 AM 40.8 °F 34.1 °F 37.6 °F 88% 30.01 in 7.0 mi SSW 11.5 mph - N/A   Overcast
1:55 AM 41.0 °F 33.9 °F 37.8 °F 88% 30.00 in 7.0 mi SSW 12.7 mph - N/A   Overcast
2:15 AM 40.6 °F 33.0 °F 37.6 °F 89% 29.98 in 7.0 mi South 13.8 mph - N/A   Overcast
2:35 AM 40.3 °F 31.6 °F 37.4 °F 89% 29.96 in 7.0 mi SSW 17.3 mph - N/A   Overcast
2:55 AM 40.3 °F 31.9 °F 37.4 °F 89% 29.96 in 7.0 mi SSW 16.1 mph - N/A   Mostly Cloudy
3:15 AM 40.5 °F 31.8 °F 37.4 °F 89% 29.96 in 7.0 mi SSW 17.3 mph - N/A   Overcast
3:35 AM 40.5 °F 31.2 °F 37.6 °F 89% 29.94 in 7.0 mi SSW 19.6 mph - N/A   Overcast
3:55 AM 40.5 °F 31.5 °F 37.4 °F 89% 29.93 in 7.0 mi SSW 18.4 mph - N/A   Overcast
4:15 AM 40.3 °F 31.3 °F 37.4 °F 89% 29.92 in 7.0 mi SSW 18.4 mph - N/A   Mostly Cloudy
4:35 AM 40.5 °F 33.2 °F 37.4 °F 89% 29.94 in 7.0 mi SW 12.7 mph - N/A   Mostly Cloudy
4:55 AM 40.1 °F 32.7 °F 36.9 °F 88% 29.93 in 7.0 mi SSW 12.7 mph - N/A   Scattered Clouds
5:15 AM 39.6 °F 32.5 °F 36.5 °F 89% 29.93 in 7.0 mi SW 11.5 mph - N/A   Mostly Cloudy
5:35 AM 39.2 °F 31.6 °F 36.1 °F 89% 29.93 in 7.0 mi SW 12.7 mph - N/A   Scattered Clouds
5:55 AM 38.8 °F 30.8 °F 35.8 °F 89% 29.93 in 7.0 mi SW 13.8 mph 17.3 mph N/A   Clear
6:15 AM 38.7 °F 33.6 °F 35.8 °F 89% 29.95 in 7.0 mi WSW 6.9 mph - N/A   Scattered Clouds
6:35 AM 40.1 °F 33.6 °F 36.5 °F 87% 29.94 in 10.0 mi West 10.4 mph - N/A   Mostly Cloudy
6:55 AM 40.5 °F 35.1 °F 36.5 °F 86% 29.94 in 10.0 mi West 8.1 mph - N/A   Scattered Clouds
7:15 AM 40.1 °F 34.7 °F 36.5 °F 87% 29.95 in 10.0 mi WNW 8.1 mph - N/A   Clear
7:35 AM 41.4 °F 33.6 °F 37.6 °F 86% 29.97 in 10.0 mi NW 15.0 mph 20.7 mph N/A   Clear
7:55 AM 43.7 °F 36.0 °F 38.3 °F 81% 29.98 in 10.0 mi NW 17.3 mph 25.3 mph N/A   Clear
8:15 AM 44.6 °F 36.4 °F 37.8 °F 77% 29.99 in 10.0 mi NW 20.7 mph 25.3 mph N/A   Clear
8:35 AM 45.1 °F 37.3 °F 36.7 °F 72% 30.00 in 10.0 mi NW 19.6 mph 27.6 mph N/A   Clear
8:55 AM 45.9 °F 38.3 °F 36.3 °F 69% 30.00 in 10.0 mi NW 19.6 mph 25.3 mph N/A   Clear
9:15 AM 46.6 °F - 35.6 °F 66% 30.01 in 10.0 mi NW 16.1 mph 27.6 mph N/A   Clear
9:55 AM 48.0 °F - 34.7 °F 60% 30.01 in 10.0 mi NW 23.0 mph - N/A   Clear
10:15 AM 49.1 °F - 34.5 °F 57% 30.01 in 10.0 mi NW 19.6 mph 28.8 mph N/A   Clear
10:35 AM 50.2 °F - 34.0 °F 54% 30.01 in 10.0 mi NW 19.6 mph 27.6 mph N/A   Clear
10:55 AM 50.9 °F - 33.4 °F 51% 30.02 in 10.0 mi WNW 17.3 mph 26.5 mph N/A   Clear
11:15 AM 52.0 °F - 32.4 °F 47% 30.01 in 10.0 mi NW 20.7 mph 27.6 mph N/A   Clear
11:35 AM 53.1 °F - 32.0 °F 45% 30.00 in 10.0 mi WNW 17.3 mph 29.9 mph N/A   Clear
11:55 AM 54.3 °F - 31.6 °F 42% 30.00 in 10.0 mi NW 17.3 mph 26.5 mph N/A   Clear
12:15 PM 54.5 °F - 30.9 °F 41% 29.99 in 10.0 mi NW 27.6 mph 38.0 mph N/A   Clear
12:35 PM 54.9 °F - 31.1 °F 40% 29.98 in 10.0 mi NW 21.9 mph 35.7 mph N/A   Clear
12:55 PM 55.4 °F - 30.2 °F 38% 29.97 in 10.0 mi NW 24.2 mph 32.2 mph N/A   Clear
1:15 PM 55.8 °F - 29.8 °F 37% 29.98 in 10.0 mi NW 23.0 mph 32.2 mph N/A   Clear
1:35 PM 55.8 °F - 29.3 °F 36% 29.98 in 10.0 mi WNW 19.6 mph 29.9 mph N/A   Clear
1:55 PM 56.1 °F - 29.7 °F 36% 29.98 in 10.0 mi NW 23.0 mph 33.4 mph N/A   Clear
2:15 PM 56.1 °F - 30.9 °F 38% 29.97 in 10.0 mi NW 27.6 mph 34.5 mph N/A   Clear
2:35 PM 55.8 °F - 31.3 °F 39% 29.97 in 10.0 mi NW 23.0 mph 34.5 mph N/A   Scattered Clouds
2:55 PM 55.9 °F - 30.9 °F 39% 29.98 in 10.0 mi NW 23.0 mph 31.1 mph N/A   Scattered Clouds
3:15 PM 55.6 °F - 30.9 °F 39% 29.98 in 10.0 mi NW 21.9 mph 38.0 mph N/A   Clear
3:35 PM 55.4 °F - 31.1 °F 40% 29.98 in 10.0 mi NW 27.6 mph 34.5 mph N/A   Clear
3:55 PM 55.0 °F - 31.1 °F 40% 29.99 in 10.0 mi NW 16.1 mph 32.2 mph N/A   Scattered Clouds
4:15 PM 54.5 °F - 31.1 °F 41% 30.00 in 10.0 mi NW 17.3 mph 32.2 mph N/A   Scattered Clouds
4:35 PM 54.1 °F - 31.5 °F 42% 30.00 in 10.0 mi NW 20.7 mph 27.6 mph N/A   Scattered Clouds
4:55 PM 53.6 °F - 31.1 °F 42% 30.00 in 10.0 mi NW 20.7 mph 27.6 mph N/A   Clear
5:35 PM 51.6 °F - 31.1 °F 45% 30.02 in 10.0 mi NW 11.5 mph 17.3 mph N/A   Clear
5:55 PM 50.4 °F - 31.6 °F 49% 30.03 in 10.0 mi NW 10.4 mph - N/A   Clear
6:15 PM 49.1 °F - 31.6 °F 51% 30.03 in 10.0 mi NW 9.2 mph - N/A   Clear
6:35 PM 48.7 °F - 31.3 °F 51% 30.04 in 10.0 mi WNW 6.9 mph - N/A   Clear
6:55 PM 46.4 °F 42.4 °F 31.5 °F 56% 30.04 in 10.0 mi WNW 8.1 mph - N/A   Clear
7:15 PM 45.9 °F 41.7 °F 31.3 °F 57% 30.05 in 10.0 mi WNW 8.1 mph - N/A   Clear
7:35 PM 45.7 °F 41.0 °F 31.1 °F 57% 30.05 in 10.0 mi WNW 9.2 mph - N/A   Clear
7:55 PM 45.7 °F 41.0 °F 31.1 °F 57% 30.05 in 10.0 mi WNW 9.2 mph - N/A   Clear
8:15 PM 44.6 °F 40.7 °F 31.1 °F 59% 30.05 in 10.0 mi WNW 6.9 mph - N/A   Clear
8:35 PM 43.9 °F 40.5 °F 30.9 °F 60% 30.06 in 10.0 mi NW 5.8 mph - N/A   Clear
8:55 PM 43.0 °F 38.8 °F 30.7 °F 62% 30.06 in 10.0 mi NW 6.9 mph - N/A   Clear
9:15 PM 42.6 °F 39.0 °F 30.7 °F 63% 30.06 in 10.0 mi WNW 5.8 mph - N/A   Clear
9:35 PM 41.7 °F 37.3 °F 30.4 °F 64% 30.06 in 10.0 mi WNW 6.9 mph - N/A   Clear
9:55 PM 41.0 °F 35.8 °F 30.2 °F 65% 30.06 in 10.0 mi WNW 8.1 mph - N/A   Clear
10:15 PM 40.8 °F 36.2 °F 30.2 °F 66% 30.06 in 10.0 mi WNW 6.9 mph - N/A   Clear
10:35 PM 40.1 °F 34.7 °F 30.0 °F 67% 30.06 in 10.0 mi WNW 8.1 mph - N/A   Clear
10:55 PM 39.7 °F 34.9 °F 29.8 °F 68% 30.06 in 10.0 mi WNW 6.9 mph - N/A   Clear
11:15 PM 39.4 °F 33.8 °F 29.8 °F 69% 30.06 in 10.0 mi WNW 8.1 mph - N/A   Clear
11:35 PM 39.6 °F 33.5 °F 29.8 °F 68% 30.07 in 10.0 mi WNW 9.2 mph - N/A   Clear
11:55 PM 39.4 °F 33.8 °F 30.0 °F 69% 30.07 in 10.0 mi WNW 8.1 mph - N/A   Clear